TimeEST,TemperatureF,Dew PointF,Humidity,Sea Level PressureIn,VisibilityMPH,Wind Direction,Wind SpeedMPH,Gust SpeedMPH,PrecipitationIn,Events,Conditions,WindDirDegrees,DateUTC
12:54 AM,21.0,8.1,57,30.41,10.0,NNW,8.1,-,N/A,,Clear,330,2013-02-10 05:54:00
1:54 AM,19.9,8.1,60,30.43,10.0,NNW,6.9,-,N/A,,Clear,330,2013-02-10 06:54:00
2:54 AM,19.0,8.1,62,30.43,10.0,NNW,8.1,-,N/A,,Clear,330,2013-02-10 07:54:00
3:54 AM,19.0,9.0,65,30.43,10.0,NW,9.2,-,N/A,,Clear,310,2013-02-10 08:54:00
4:54 AM,19.0,9.0,65,30.42,10.0,North,5.8,-,N/A,,Clear,350,2013-02-10 09:54:00
5:54 AM,19.0,8.1,62,30.44,10.0,Calm,Calm,-,N/A,,Clear,0,2013-02-10 10:54:00
6:54 AM,16.0,8.1,71,30.46,10.0,Calm,Calm,-,N/A,,Clear,0,2013-02-10 11:54:00
7:54 AM,19.9,10.0,65,30.50,10.0,WNW,3.5,-,N/A,,Clear,300,2013-02-10 12:54:00
8:54 AM,21.9,10.9,63,30.52,10.0,NNW,5.8,-,N/A,,Clear,330,2013-02-10 13:54:00
9:54 AM,25.0,10.0,53,30.52,10.0,Calm,Calm,-,N/A,,Clear,0,2013-02-10 14:54:00
10:54 AM,27.0,9.0,47,30.52,10.0,Calm,Calm,-,N/A,,Clear,0,2013-02-10 15:54:00
11:54 AM,28.9,10.9,47,30.48,10.0,Calm,Calm,-,N/A,,Clear,0,2013-02-10 16:54:00
12:54 PM,32.0,10.9,42,30.45,10.0,Calm,Calm,-,N/A,,Clear,0,2013-02-10 17:54:00
1:54 PM,35.1,12.0,39,30.43,10.0,Variable,3.5,-,N/A,,Clear,0,2013-02-10 18:54:00
2:54 PM,37.9,12.0,35,30.41,10.0,SW,3.5,-,N/A,,Clear,220,2013-02-10 19:54:00
3:54 PM,39.0,10.9,32,30.40,10.0,SSE,3.5,-,N/A,,Clear,150,2013-02-10 20:54:00
4:54 PM,39.0,10.9,32,30.39,10.0,SE,3.5,-,N/A,,Clear,130,2013-02-10 21:54:00
5:54 PM,36.0,10.9,36,30.40,10.0,Calm,Calm,-,N/A,,Clear,0,2013-02-10 22:54:00
6:54 PM,34.0,12.0,40,30.40,10.0,SE,3.5,-,N/A,,Clear,140,2013-02-10 23:54:00
7:54 PM,34.0,15.1,46,30.39,10.0,Calm,Calm,-,N/A,,Clear,0,2013-02-11 00:54:00
8:54 PM,34.0,18.0,52,30.38,10.0,SE,3.5,-,N/A,,Clear,140,2013-02-11 01:54:00
9:54 PM,33.1,18.0,54,30.38,10.0,South,4.6,-,N/A,,Clear,170,2013-02-11 02:54:00
10:54 PM,32.0,18.0,56,30.34,10.0,South,3.5,-,N/A,,Clear,170,2013-02-11 03:54:00
11:54 PM,32.0,21.0,64,30.34,10.0,SE,3.5,-,N/A,,Clear,130,2013-02-11 04:54:00